Location: Marcé
(47.5801°N, 0.3280°W)
Time: 22:48:45
(UTC+01:00)

Transit 2A - Pass Details

Date: 30 November 2021
Orbit: 591 x 967 km, 66.7° (Epoch: 16 January)

Event Time Altitude Azimuth Distance (km) Brightness Sun altitude
Rises 10:35:54 0° 324° (NW) 3,655 8.9 14.4°
Reaches altitude 10° 10:38:29 10° 324° (NW) 2,714 8.3 14.7°
Maximum altitude 10:44:55 83° 239° (WSW) 971 6.8 15.2°
Drops below altitude 10° 10:51:06 10° 152° (SSE) 2,615 11.8 15.7°
Sets 10:53:33 0° 151° (SSE) 3,514 11.3 15.9°
